Weather Roundup
Issued by NWS Chicago, IL

Home | Current Version | Previous Version | Graphics & Text | Print | Product List | Glossary On
Versions: 1 2 3 4 5 6 7 8 9 10 11 12 13 14 15 16 17 18 19 20 21 22 23 24 25 26 27 28 29 30 31 32 33 34 35 36 37 38 39 40 41 42 43 44 45 46 47 48 49 50
255
NZUS59 KLOT 071712
HRRLOT

CHICAGO AREA WEATHER ROUNDUP
NATIONAL WEATHER SERVICE CHICAGO/ROMEOVILLE IL
1100 AM CST WED DEC 07 2016

NOTE: "FAIR" INDICATES FEW OR NO CLOUDS BELOW 12,000 FEET WITH NO
SIGNIFICANT WEATHER AND/OR OBSTRUCTIONS TO VISIBILITY.

* THESE STATIONS ARE NOT UNDER NWS QUALITY CONTROL. THEY ALSO MAY NOT
  REPORT WEATHER SUCH AS PRECIPITATION OR FOG.

ILZ005-006-012>014-019>023-071800-
NORTHEAST ILLINOIS

CITY           SKY/WX    TMP DP  RH WIND       PRES   REMARKS
OHARE          PTSUNNY   26  17  68 W13G20    30.09F WCI  15
MIDWAY         PTSUNNY   28  18  66 SW10      30.11F WCI  19
AURORA         SUNNY     24  18  77 W17       30.12F WCI  11
LANSING*       SUNNY     28  21  75 W13       30.12F WCI  18
JOLIET*        MOSUNNY   28  20  72 W7        30.13F WCI  20
WAUKEGAN       MOSUNNY   28  17  63 VRB7G21   30.05S WCI  21
DUPAGE AIRPORT SUNNY     24  16  71 SW13      30.09F WCI  12
WHEELING       SUNNY     26  16  65 W8        30.10F WCI  18
KANKAKEE*      CLOUDY    29  21  70 W12       30.15F WCI  20
MORRIS*        MOSUNNY   26  20  76 W10       30.12F WCI  17
LEWIS AIRPORT* SUNNY     26  22  84 W13       30.11F WCI  15
NORTHERLY ISL    N/A     28  18  66 SW15        N/A  WCI  17
$$

WIZ051-052-058>065-066-070>072-071800-
SOUTHEAST WISCONSIN

CITY           SKY/WX    TMP DP  RH WIND       PRES   REMARKS
MILWAUKEE      PTSUNNY   28  15  58 W14G22    30.02S WCI  17
KENOSHA*       CLOUDY    26  18  71 W21       30.04F WCI  12
RACINE*        PTSUNNY   26  16  65 W17G24    30.05S WCI  13
BURLINGTON     MOSUNNY   25  17  74 W14G21    30.04F WCI  13
WAUKESHA       SUNNY     23  16  74 SW14      30.03R WCI  11
$$

INZ001>003-010>013-019-020-071800-
NORTHWEST INDIANA

CITY           SKY/WX    TMP DP  RH WIND       PRES   REMARKS
GARY*          PTSUNNY   30  19  64 SW14      30.12F WCI  20
MICHIGAN CITY* NOT AVBL
RENSSELAER*    NOT AVBL
VALPARAISO     CLOUDY    29  19  66 SW13      30.12S WCI  19
$$

LMZ740>746-071800-
SOUTHERN LAKE MICHIGAN

STATION/POSITION TIME  SKY/WX   TEMP WIND        PRES    VSBY
                                AIR  DIR/SP/G
                 (UTC)          (F)  (DEG/KT/KT) (MB)    (MI)
HARRISON CRIB    1640            28  240/ 13/ 15   N/A
BURNHAM HARBOR   1700            28  280/  8/ 15   N/A
CALUMET HARBOR   1642            28  230/  9/ 17 1019.0F
BURNS HARBOR     1640            30  230/ 13/ 17 1020.0S
MICHIGAN CITY    1640            30  210/ 18/ 20   N/A
$$

ABBREVIATIONS USED IN REMARKS
   TC - TEMPERATURE IN CELSIUS
  WCI - WIND CHILL INDEX
   HX - HEAT INDEX
  VSB - VISIBILITY
$$




USA.gov is the U.S. government's official web portal to all federal, state and local government web resources and services.